Location: Prairie View Elementary School
(39.8322°N, 99.5698°W)
Time: 16:29:51
(UTC+00:00)

Cosmos 1464 Rocket - Pass Details

Date: 08 December 2019
Orbit: 953 x 1001 km, 82.9° (Epoch: 27 January)

Event Time Altitude Azimuth Distance (km) Brightness Sun altitude
Rises 11:20:42 0° 195° (SSW) 3,658 6.9 -27.3°
Reaches altitude 10° 11:23:15 10° 199° (SSW) 2,708 6.2 -26.8°
Enters shadow 11:26:44 35° 213° (SSW) 1,521 4.8 -26.1°
Exits shadow 11:28:56 60° 259° (WSW) 1,094 3.9 -25.7°
Maximum altitude 11:29:22 62° 279° (W) 1,079 3.9 -25.6°
Drops below altitude 10° 11:35:28 10° 0° (N) 2,697 6.2 -24.5°
Sets 11:38:01 0° 4° (N) 3,643 6.9 -24.0°
